This demonstration page uses our WeatherBlox Daily Observations layout. Learn more.

41.86663, -103.66717

Hourly Observations for June 12, 2019

Temp ( °F °C ) Dew Point ( °F °C ) Humidity (%) Winds ( mph kmh ) Pressure ( in mb ) Visibility ( mi km ) Precip ( " mm )
12:53 am 00:53 Mostly Cloudy 52 11.1 46 7.8 80 80 WNW 7 11 30.21 1023 10 16.0934 0 0
1:53 am 01:53 Partly Cloudy 50 10 46 7.8 86 86 WNW 7 11 30.21 1023 10 16.0934 0 0
2:53 am 02:53 Mostly Cloudy 48 8.9 47 8.3 96 96 WNW 7 11 30.21 1023 10 16.0934 0 0
3:53 am 03:53 Clear 49 9.4 45 7.2 86 86 WNW 7 11 30.22 1023 10 16.0934 0 0
4:53 am 04:53 Clear 45 7.2 44 6.7 97 97 NW 7 11 30.23 1024 10 16.0934 0 0
5:53 am 05:53 Sunny 47 8.3 45 7.2 93 93 WNW 8 13 30.23 1024 10 16.0934 0 0
6:53 am 06:53 Sunny 51 10.6 46 7.8 83 83 WNW 8 13 30.22 1024 10 16.0934 0 0
7:53 am 07:53 Sunny 57 13.9 48 8.9 72 72 WNW 10 17 30.23 1024 10 16.0934 0 0
8:53 am 08:53 Sunny 63 17.2 51 10.6 65 65 W 7 11 30.22 1023 10 16.0934 0 0
9:53 am 09:53 Mostly Sunny 67 19.4 47 8.3 49 49 NNW 10 17 30.21 1023 10 16.0934 0 0
10:53 am 10:53 Sunny 69 20.6 49 9.4 49 49 N 9 15 30.19 1022 10 16.0934 0 0
11:53 am 11:53 Partly Cloudy 71 21.7 51 10.6 49 49 WNW 10 17 30.17 1022 10 16.0934 0 0
12:53 pm 12:53 Mostly Sunny 73 22.8 52 11.1 48 48 NNE 6 9 30.14 1021 10 16.0934 0 0
1:53 pm 13:53 Mostly Cloudy 70 21.1 50 10 49 49 VRB 5 7 30.14 1021 10 16.0934 0 0
2:53 pm 14:53 Cloudy 72 22.2 51 10.6 48 48 NNW 7 11 30.13 1020 10 16.0934 0 0
3:53 pm 15:53 Partly Cloudy 72 22.2 51 10.6 48 48 Calm 30.1 1019 10 16.0934 0 0
4:53 pm 16:53 Mostly Cloudy 74 23.3 54 12.2 50 50 Calm 30.09 1019 10 16.0934 0 0
5:53 pm 17:53 Partly Cloudy 73 22.8 51 10.6 46 46 Calm 30.07 1018 10 16.0934 0 0
6:53 pm 18:53 Sunny 71 21.7 50 10 47 47 SSE 6 9 30.06 1018 10 16.0934 0 0
7:53 pm 19:53 Sunny 68 20 48 8.9 49 49 SE 7 11 30.04 1017 10 16.0934 0 0
8:53 pm 20:53 Clear 64 17.8 46 7.8 52 52 SE 7 11 30.04 1017 10 16.0934 0 0
9:53 pm 21:53 Mostly Clear 56 13.3 44 6.7 65 65 E 7 11 30.05 1018 10 16.0934 0 0
10:53 pm 22:53 Clear 55 12.8 44 6.7 67 67 E 8 13 30.04 1017 10 16.0934 0 0
11:53 pm 23:53 Clear 54 12.2 45 7.2 72 72 E 8 13 30.03 1017 10 16.0934 0 0

Powered by AerisWeather